Time,TemperatureF,DewpointF,PressureIn,WindDirection,WindDirectionDegrees,WindSpeedMPH,WindSpeedGustMPH,Humidity,HourlyPrecipIn,Conditions,Clouds,dailyrainin,SoftwareType,DateUTC
2013-10-10 00:01:00,48.6,44.3,29.71,West,261,0.0,0.0,85,0.00,,---,0.00,VWS V14.01,2013-10-10 07:01:00,
2013-10-10 00:06:00,48.5,44.2,29.71,West,261,0.0,0.0,85,0.00,,---,0.00,VWS V14.01,2013-10-10 07:06:00,
2013-10-10 00:16:00,48.0,43.7,29.71,West,261,0.0,0.0,85,0.00,,---,0.00,VWS V14.01,2013-10-10 07:16:00,
2013-10-10 00:21:00,47.7,43.4,29.71,West,261,0.0,0.0,85,0.00,,---,0.00,VWS V14.01,2013-10-10 07:21:00,
2013-10-10 00:31:00,47.3,43.0,29.71,West,261,0.0,0.0,85,0.00,,---,0.00,VWS V14.01,2013-10-10 07:31:00,
2013-10-10 00:41:00,46.8,42.5,29.71,West,261,0.0,0.0,85,0.00,,---,0.00,VWS V14.01,2013-10-10 07:41:00,
2013-10-10 00:46:00,46.7,42.4,29.72,West,261,0.0,0.0,85,0.00,,---,0.00,VWS V14.01,2013-10-10 07:46:00,
2013-10-10 00:56:00,46.4,42.1,29.72,West,261,0.0,0.0,85,0.00,,---,0.00,VWS V14.01,2013-10-10 07:56:00,
2013-10-10 01:01:00,46.2,42.0,29.73,West,261,0.0,0.0,85,0.00,,---,0.00,VWS V14.01,2013-10-10 08:01:00,
2013-10-10 01:06:00,46.4,42.5,29.73,West,261,0.0,0.0,86,0.00,,---,0.00,VWS V14.01,2013-10-10 08:06:00,
2013-10-10 01:11:00,46.2,42.2,29.73,West,261,0.0,0.0,86,0.00,,---,0.00,VWS V14.01,2013-10-10 08:11:00,
2013-10-10 01:16:00,46.1,42.2,29.73,West,261,0.0,0.0,86,0.00,,---,0.00,VWS V14.01,2013-10-10 08:16:00,
2013-10-10 01:21:00,46.1,42.2,29.73,West,261,0.0,0.0,86,0.00,,---,0.00,VWS V14.01,2013-10-10 08:21:00,
2013-10-10 01:31:00,45.7,41.8,29.73,West,261,0.0,0.0,86,0.00,,---,0.00,VWS V14.01,2013-10-10 08:31:00,
2013-10-10 01:36:00,45.5,41.6,29.73,West,261,0.0,0.0,86,0.00,,---,0.00,VWS V14.01,2013-10-10 08:36:00,
2013-10-10 01:41:00,45.4,41.5,29.73,West,261,0.0,0.0,86,0.00,,---,0.00,VWS V14.01,2013-10-10 08:41:00,
2013-10-10 01:51:00,44.9,41.0,29.73,West,261,0.0,0.0,86,0.00,,---,0.00,VWS V14.01,2013-10-10 08:51:00,
2013-10-10 02:01:00,44.6,40.7,29.73,West,261,0.0,0.0,86,0.00,,---,0.00,VWS V14.01,2013-10-10 09:01:00,
2013-10-10 02:06:00,44.6,40.7,29.73,West,261,0.0,0.0,86,0.00,,---,0.00,VWS V14.01,2013-10-10 09:06:00,
2013-10-10 02:16:00,44.6,41.0,29.74,West,261,0.0,0.0,87,0.00,,---,0.00,VWS V14.01,2013-10-10 09:16:00,
2013-10-10 02:26:00,44.6,41.0,29.74,West,261,0.0,0.0,87,0.00,,---,0.00,VWS V14.01,2013-10-10 09:26:00,
2013-10-10 02:36:00,44.5,40.9,29.75,West,261,0.0,0.0,87,0.00,,---,0.00,VWS V14.01,2013-10-10 09:36:00,
2013-10-10 02:46:00,44.3,41.0,29.75,West,261,0.0,0.0,88,0.00,,---,0.00,VWS V14.01,2013-10-10 09:46:00,
2013-10-10 02:51:00,44.2,40.9,29.75,West,261,0.0,0.0,88,0.00,,---,0.00,VWS V14.01,2013-10-10 09:51:00,
2013-10-10 02:56:00,44.2,40.9,29.75,West,261,0.0,0.0,88,0.00,,---,0.00,VWS V14.01,2013-10-10 09:56:00,
2013-10-10 03:06:00,44.1,40.8,29.75,West,261,0.0,0.0,88,0.00,,---,0.00,VWS V14.01,2013-10-10 10:06:00,
2013-10-10 03:11:00,44.1,40.8,29.75,West,261,0.0,0.0,88,0.00,,---,0.00,VWS V14.01,2013-10-10 10:11:00,
2013-10-10 03:16:00,43.9,40.6,29.76,West,261,0.0,0.0,88,0.00,,---,0.00,VWS V14.01,2013-10-10 10:16:00,
2013-10-10 03:21:00,43.9,40.6,29.76,West,261,0.0,0.0,88,0.00,,---,0.00,VWS V14.01,2013-10-10 10:21:00,
2013-10-10 03:26:00,43.9,40.6,29.76,West,261,0.0,0.0,88,0.00,,---,0.00,VWS V14.01,2013-10-10 10:26:00,
2013-10-10 03:36:00,43.8,40.5,29.76,West,261,0.0,0.0,88,0.00,,---,0.00,VWS V14.01,2013-10-10 10:36:00,
2013-10-10 03:46:00,43.6,40.3,29.76,West,261,0.0,0.0,88,0.00,,---,0.00,VWS V14.01,2013-10-10 10:46:00,
2013-10-10 03:51:00,43.5,40.5,29.76,West,261,0.0,0.0,89,0.00,,---,0.00,VWS V14.01,2013-10-10 10:51:00,
2013-10-10 03:56:00,43.3,40.3,29.76,West,261,0.0,0.0,89,0.00,,---,0.00,VWS V14.01,2013-10-10 10:56:00,
2013-10-10 04:06:00,43.1,40.1,29.77,West,261,0.0,0.0,89,0.00,,---,0.00,VWS V14.01,2013-10-10 11:06:00,
2013-10-10 04:16:00,42.8,39.8,29.78,West,261,0.0,0.0,89,0.00,,---,0.00,VWS V14.01,2013-10-10 11:16:00,
2013-10-10 04:21:00,42.6,39.6,29.78,West,261,0.0,0.0,89,0.00,,---,0.00,VWS V14.01,2013-10-10 11:21:00,
2013-10-10 04:31:00,42.6,39.6,29.78,West,261,0.0,0.0,89,0.00,,---,0.00,VWS V14.01,2013-10-10 11:31:00,
2013-10-10 04:41:00,42.6,39.6,29.78,West,261,0.0,0.0,89,0.00,,---,0.00,VWS V14.01,2013-10-10 11:41:00,
2013-10-10 04:51:00,42.5,39.5,29.78,West,261,0.0,0.0,89,0.00,,---,0.00,VWS V14.01,2013-10-10 11:51:00,
2013-10-10 04:56:00,42.3,39.3,29.78,West,261,0.0,0.0,89,0.00,,---,0.00,VWS V14.01,2013-10-10 11:56:00,
2013-10-10 05:06:00,42.2,39.2,29.78,West,261,0.0,0.0,89,0.00,,---,0.00,VWS V14.01,2013-10-10 12:06:00,
2013-10-10 05:11:00,42.1,39.1,29.78,West,261,0.0,0.0,89,0.00,,---,0.00,VWS V14.01,2013-10-10 12:11:00,
2013-10-10 05:16:00,42.1,39.1,29.79,West,261,0.0,0.0,89,0.00,,---,0.00,VWS V14.01,2013-10-10 12:16:00,
2013-10-10 05:21:00,41.9,38.9,29.79,West,261,0.0,0.0,89,0.00,,---,0.00,VWS V14.01,2013-10-10 12:21:00,
2013-10-10 05:26:00,41.9,38.9,29.79,West,261,0.0,0.0,89,0.00,,---,0.00,VWS V14.01,2013-10-10 12:26:00,
2013-10-10 05:31:00,41.8,38.8,29.79,West,261,0.0,0.0,89,0.00,,---,0.00,VWS V14.01,2013-10-10 12:31:00,
2013-10-10 05:41:00,41.6,38.6,29.79,West,261,0.0,0.0,89,0.00,,---,0.00,VWS V14.01,2013-10-10 12:41:00,
2013-10-10 05:46:00,41.5,38.5,29.80,West,261,0.0,0.0,89,0.00,,---,0.00,VWS V14.01,2013-10-10 12:46:00,
2013-10-10 05:56:00,41.3,38.3,29.80,West,261,0.0,0.0,89,0.00,,---,0.00,VWS V14.01,2013-10-10 12:56:00,
2013-10-10 06:01:00,41.2,38.2,29.81,West,261,0.0,0.0,89,0.00,,---,0.00,VWS V14.01,2013-10-10 13:01:00,
2013-10-10 06:06:00,41.2,38.5,29.81,West,261,0.0,0.0,90,0.00,,---,0.00,VWS V14.01,2013-10-10 13:06:00,
2013-10-10 06:11:00,41.2,38.5,29.81,West,261,0.0,0.0,90,0.00,,---,0.00,VWS V14.01,2013-10-10 13:11:00,
2013-10-10 06:16:00,41.2,38.5,29.82,West,261,0.0,0.0,90,0.00,,---,0.00,VWS V14.01,2013-10-10 13:16:00,
2013-10-10 06:26:00,41.1,38.4,29.82,West,261,0.0,0.0,90,0.00,,---,0.00,VWS V14.01,2013-10-10 13:26:00,
2013-10-10 06:31:00,41.1,38.4,29.83,West,261,0.0,0.0,90,0.00,,---,0.00,VWS V14.01,2013-10-10 13:31:00,
2013-10-10 06:36:00,41.1,38.4,29.83,West,261,0.0,0.0,90,0.00,,---,0.00,VWS V14.01,2013-10-10 13:36:00,
2013-10-10 06:46:00,41.2,38.5,29.83,West,261,0.0,0.0,90,0.00,,---,0.00,VWS V14.01,2013-10-10 13:46:00,
2013-10-10 06:56:00,41.2,38.5,29.83,West,261,0.0,0.0,90,0.00,,---,0.00,VWS V14.01,2013-10-10 13:56:00,
2013-10-10 07:01:00,41.2,38.5,29.84,West,261,0.0,0.0,90,0.00,,---,0.00,VWS V14.01,2013-10-10 14:01:00,
2013-10-10 07:06:00,41.1,38.4,29.84,West,261,0.0,0.0,90,0.00,,---,0.00,VWS V14.01,2013-10-10 14:06:00,
2013-10-10 07:11:00,41.1,38.4,29.84,West,261,0.0,0.0,90,0.00,,---,0.00,VWS V14.01,2013-10-10 14:11:00,
2013-10-10 07:21:00,41.1,38.7,29.85,West,261,0.0,0.0,91,0.00,,---,0.00,VWS V14.01,2013-10-10 14:21:00,
2013-10-10 07:26:00,41.1,38.7,29.85,West,261,0.0,0.0,91,0.00,,---,0.00,VWS V14.01,2013-10-10 14:26:00,
2013-10-10 07:31:00,41.2,38.8,29.86,West,261,0.0,0.0,91,0.00,,---,0.00,VWS V14.01,2013-10-10 14:31:00,
2013-10-10 07:36:00,41.3,38.9,29.86,West,261,0.0,0.0,91,0.00,,---,0.00,VWS V14.01,2013-10-10 14:36:00,
2013-10-10 07:46:00,43.3,41.1,29.86,North,0,0.0,0.0,92,0.00,,---,0.00,VWS V14.01,2013-10-10 14:46:00,
2013-10-10 07:51:00,44.5,42.3,29.86,North,0,0.0,0.0,92,0.00,,---,0.00,VWS V14.01,2013-10-10 14:51:00,
2013-10-10 08:01:00,45.2,42.7,29.87,North,0,0.0,0.0,91,0.00,,---,0.00,VWS V14.01,2013-10-10 15:01:00,
2013-10-10 08:11:00,46.4,43.9,29.87,North,0,0.0,0.0,91,0.00,,---,0.00,VWS V14.01,2013-10-10 15:11:00,
2013-10-10 08:21:00,47.9,45.1,29.88,North,350,0.0,0.0,90,0.00,,---,0.00,VWS V14.01,2013-10-10 15:21:00,
2013-10-10 08:26:00,48.6,45.5,29.88,North,350,0.0,0.0,89,0.00,,---,0.00,VWS V14.01,2013-10-10 15:26:00,
2013-10-10 08:31:00,49.1,45.4,29.89,North,350,0.0,0.0,87,0.00,,---,0.00,VWS V14.01,2013-10-10 15:31:00,
2013-10-10 08:41:00,50.4,44.8,29.89,North,350,0.0,0.0,81,0.00,,---,0.00,VWS V14.01,2013-10-10 15:41:00,
2013-10-10 08:46:00,51.0,44.7,29.89,North,350,0.0,0.0,79,0.00,,---,0.00,VWS V14.01,2013-10-10 15:46:00,
2013-10-10 08:51:00,51.4,44.8,29.89,North,350,0.0,0.0,78,0.00,,---,0.00,VWS V14.01,2013-10-10 15:51:00,
2013-10-10 09:01:00,52.9,45.2,29.89,North,350,0.0,0.0,75,0.00,,---,0.00,VWS V14.01,2013-10-10 16:01:00,
2013-10-10 09:11:00,53.5,44.0,29.89,North,353,0.0,0.0,70,0.00,,---,0.00,VWS V14.01,2013-10-10 16:11:00,
2013-10-10 09:21:00,54.8,44.1,29.89,North,354,0.0,0.0,67,0.00,,---,0.00,VWS V14.01,2013-10-10 16:21:00,
2013-10-10 09:26:00,55.4,44.2,29.89,North,0,0.0,0.0,66,0.00,,---,0.00,VWS V14.01,2013-10-10 16:26:00,
2013-10-10 09:36:00,56.5,44.5,29.90,North,0,0.0,0.0,64,0.00,,---,0.00,VWS V14.01,2013-10-10 16:36:00,
2013-10-10 09:41:00,57.2,44.7,29.90,North,0,0.0,0.0,63,0.00,,---,0.00,VWS V14.01,2013-10-10 16:41:00,
2013-10-10 09:46:00,57.8,44.5,29.89,North,0,0.0,0.0,61,0.00,,---,0.00,VWS V14.01,2013-10-10 16:46:00,
2013-10-10 09:56:00,58.6,44.8,29.89,North,0,0.0,0.0,60,0.00,,---,0.00,VWS V14.01,2013-10-10 16:56:00,
2013-10-10 10:06:00,59.3,46.7,29.89,North,0,0.0,0.0,63,0.00,,---,0.00,VWS V14.01,2013-10-10 17:06:00,
2013-10-10 10:11:00,59.9,47.7,29.89,ESE,116,0.0,0.0,64,0.00,,---,0.00,VWS V14.01,2013-10-10 17:11:00,
2013-10-10 10:16:00,59.8,47.2,29.90,ESE,116,0.0,0.0,63,0.00,,---,0.00,VWS V14.01,2013-10-10 17:16:00,
2013-10-10 10:21:00,59.9,46.4,29.90,ESE,116,0.0,0.0,61,0.00,,---,0.00,VWS V14.01,2013-10-10 17:21:00,
2013-10-10 10:31:00,60.2,46.7,29.90,ESE,116,0.0,0.0,61,0.00,,---,0.00,VWS V14.01,2013-10-10 17:31:00,
2013-10-10 10:41:00,61.6,47.6,29.90,SSW,202,0.0,0.0,60,0.00,,---,0.00,VWS V14.01,2013-10-10 17:41:00,
2013-10-10 10:46:00,62.6,48.1,29.89,SE,143,0.0,0.0,59,0.00,,---,0.00,VWS V14.01,2013-10-10 17:46:00,
2013-10-10 10:56:00,63.2,48.7,29.89,ESE,121,0.0,0.0,59,0.00,,---,0.00,VWS V14.01,2013-10-10 17:56:00,
2013-10-10 11:01:00,63.9,48.8,29.89,SE,141,0.0,0.0,58,0.00,,---,0.00,VWS V14.01,2013-10-10 18:01:00,
2013-10-10 11:06:00,63.9,47.9,29.89,SE,141,0.0,0.0,56,0.00,,---,0.00,VWS V14.01,2013-10-10 18:06:00,
2013-10-10 11:16:00,63.7,46.8,29.89,SE,141,0.0,0.0,54,0.00,,---,0.00,VWS V14.01,2013-10-10 18:16:00,
2013-10-10 11:26:00,65.2,46.6,29.89,SW,230,0.0,0.0,51,0.00,,---,0.00,VWS V14.01,2013-10-10 18:26:00,
2013-10-10 11:36:00,65.0,45.9,29.90,WSW,257,0.0,0.0,50,0.00,,---,0.00,VWS V14.01,2013-10-10 18:36:00,
2013-10-10 11:41:00,65.3,46.2,29.90,WNW,284,0.0,0.0,50,0.00,,---,0.00,VWS V14.01,2013-10-10 18:41:00,
2013-10-10 11:46:00,65.3,45.7,29.89,SW,229,0.0,0.0,49,0.00,,---,0.00,VWS V14.01,2013-10-10 18:46:00,
2013-10-10 11:51:00,66.0,47.4,29.89,SSW,213,0.0,0.0,51,0.00,,---,0.00,VWS V14.01,2013-10-10 18:51:00,
2013-10-10 11:56:00,66.4,47.2,29.89,SSW,192,0.0,0.0,50,0.00,,---,0.00,VWS V14.01,2013-10-10 18:56:00,
2013-10-10 12:01:00,66.3,48.2,29.88,SSW,209,0.0,0.0,52,0.00,,---,0.00,VWS V14.01,2013-10-10 19:01:00,
2013-10-10 12:11:00,67.6,48.8,29.88,SSW,205,0.0,0.0,51,0.00,,---,0.00,VWS V14.01,2013-10-10 19:11:00,
2013-10-10 12:21:00,66.8,48.1,29.88,SW,234,0.0,0.0,51,0.00,,---,0.00,VWS V14.01,2013-10-10 19:21:00,
2013-10-10 12:26:00,67.8,48.0,29.88,WNW,302,0.0,0.0,49,0.00,,---,0.00,VWS V14.01,2013-10-10 19:26:00,
2013-10-10 22:35:00,52.8,47.5,29.93,West,270,0.0,0.0,82,0.00,,---,0.00,VWS V14.01,2013-10-11 05:35:00,
2013-10-10 22:46:00,52.6,47.6,29.93,West,270,0.0,0.0,83,0.00,,---,0.00,VWS V14.01,2013-10-11 05:46:00,
2013-10-10 22:56:00,52.3,47.3,29.93,West,270,0.0,0.0,83,0.00,,---,0.00,VWS V14.01,2013-10-11 05:56:00,
2013-10-10 23:01:00,52.2,47.2,29.93,West,270,0.0,0.0,83,0.00,,---,0.00,VWS V14.01,2013-10-11 06:01:00,
2013-10-10 23:06:00,52.0,47.0,29.93,West,270,0.0,0.0,83,0.00,,---,0.00,VWS V14.01,2013-10-11 06:06:00,
2013-10-10 23:11:00,51.7,46.7,29.93,West,270,0.0,0.0,83,0.00,,---,0.00,VWS V14.01,2013-10-11 06:11:00,
2013-10-10 23:16:00,51.7,47.0,29.93,West,270,0.0,0.0,84,0.00,,---,0.00,VWS V14.01,2013-10-11 06:16:00,
2013-10-10 23:21:00,51.6,46.9,29.93,West,270,0.0,0.0,84,0.00,,---,0.00,VWS V14.01,2013-10-11 06:21:00,
2013-10-10 23:26:00,51.4,46.7,29.93,West,270,0.0,0.0,84,0.00,,---,0.00,VWS V14.01,2013-10-11 06:26:00,
2013-10-10 23:31:00,51.3,46.6,29.93,West,270,0.0,0.0,84,0.00,,---,0.00,VWS V14.01,2013-10-11 06:31:00,
2013-10-10 23:36:00,51.3,46.6,29.93,West,270,0.0,0.0,84,0.00,,---,0.00,VWS V14.01,2013-10-11 06:36:00,
2013-10-10 23:46:00,51.1,46.8,29.93,West,270,0.0,0.0,85,0.00,,---,0.00,VWS V14.01,2013-10-11 06:46:00,
2013-10-10 23:51:00,51.0,46.7,29.93,West,270,0.0,0.0,85,0.00,,---,0.00,VWS V14.01,2013-10-11 06:51:00,
2013-10-10 23:56:00,51.0,46.7,29.93,West,270,0.0,0.0,85,0.00,,---,0.00,VWS V14.01,2013-10-11 06:56:00,